PBO Station Position Time Series. Reference Frame : NAM14
Format Version,1.1.0
4-character ID,OXUM
Station name,oxum_TNET_MX2001
Begin Date, 2013-02-22
End Date, 2022-09-01
Release Date, 2023-03-02
Reference position, 15.6622459267 North Latitude, -96.4990283629 East Longitude, 82.23411 meters elevation,
Date, North (mm), East (mm), Vertical (mm), North Std. Deviation (mm), East Std. Deviation (mm),              Vertical Std. Deviation (mm), Quality,
2013-02-22,0.00, 0.00, 0.00, 2.21, 2.53, 10.53, repro,
2013-02-23,-1.02, -0.95, -14.78, 2.22, 2.52, 10.56, repro,
2013-02-24,-0.05, 1.00, -14.43, 2.19, 2.42, 10.31, repro,
2013-02-25,-1.61, -2.10, -11.16, 2.15, 2.43, 10.27, repro,
2013-02-26,-0.30, -3.49, -9.63, 2.28, 2.54, 11.24, repro,
2013-02-27,0.10, -2.53, -13.79, 2.17, 2.45, 10.33, repro,
2013-02-28,-3.34, -0.14, -17.26, 2.17, 2.45, 10.40, repro,
2013-03-01,-0.86, -0.77, -18.39, 2.31, 2.46, 10.84, repro,
2013-03-02,0.03, 1.30, -9.90, 2.31, 2.45, 10.83, repro,
2013-03-03,-0.55, 1.40, 0.05, 2.27, 2.50, 10.66, repro,
2013-03-04,-2.11, -4.18, -16.13, 2.48, 2.79, 11.98, repro,
2013-03-05,1.97, -1.87, -27.39, 2.27, 2.55, 10.74, repro,
2013-03-06,1.48, -3.03, -14.77, 2.30, 2.50, 10.98, repro,
2013-03-07,-2.84, -0.94, -24.97, 2.42, 2.52, 11.46, repro,
2013-03-08,-1.62, -0.41, -19.05, 2.21, 2.44, 10.49, repro,
2013-03-09,0.54, -1.61, -20.98, 2.25, 2.48, 11.10, repro,
2013-03-10,-2.38, -1.60, 0.11, 2.27, 2.49, 11.26, repro,
2013-03-11,-3.75, -1.05, -19.92, 2.37, 2.75, 11.47, repro,
2013-03-12,-2.47, -1.46, -11.64, 2.18, 2.42, 10.27, repro,
2013-03-13,-0.21, -1.75, -21.82, 2.29, 2.44, 10.66, repro,
2013-03-14,-1.40, -2.93, -24.01, 2.28, 2.52, 11.11, repro,
2013-03-15,-1.07, -3.59, -31.50, 2.16, 2.42, 10.23, repro,
2013-03-16,-0.80, -1.09, -28.57, 2.32, 2.52, 10.98, repro,
2013-03-17,-2.29, -2.23, -18.66, 2.42, 2.47, 11.48, repro,
2013-03-18,-2.90, -1.89, -15.44, 2.29, 2.44, 10.61, repro,
2013-03-19,-2.45, -4.69, -19.59, 2.22, 2.45, 10.41, repro,
2013-03-20,-3.78, -2.08, -17.84, 2.17, 2.41, 10.18, repro,
2013-03-21,-4.27, -2.37, -16.70, 2.30, 2.51, 10.85, repro,
2013-03-22,-2.07, 3.05, -11.16, 2.17, 2.45, 10.47, repro,
2013-03-23,-5.65, 1.44, -13.57, 2.19, 2.44, 10.34, repro,
2013-03-24,-5.51, -2.53, -16.09, 2.21, 2.47, 10.52, repro,
2013-03-25,-3.58, 0.14, -13.69, 2.18, 2.44, 10.34, repro,
2013-03-26,-2.64, -3.66, -15.32, 2.18, 2.44, 10.29, repro,
2013-03-27,-2.90, -3.25, -12.11, 2.25, 2.49, 11.03, repro,
2013-03-28,-3.34, -1.79, -17.24, 2.34, 2.54, 11.60, repro,
2013-03-29,-0.71, -3.01, -0.97, 2.26, 2.53, 10.70, repro,
2013-03-30,-2.55, -0.07, -17.14, 2.37, 2.58, 11.34, repro,
2013-03-31,-1.38, -0.93, -19.44, 2.23, 2.51, 10.67, repro,
2013-04-01,-2.90, -0.42, -17.04, 2.26, 2.53, 10.84, repro,
2013-04-02,-2.07, -4.03, -11.74, 2.22, 2.51, 10.62, repro,
2013-04-03,-2.22, -0.46, -13.91, 2.25, 2.52, 10.72, repro,
2013-04-04,-3.49, -4.35, -14.05, 2.31, 2.70, 10.87, repro,
2013-04-05,-3.83, -3.01, -12.66, 2.28, 2.52, 10.81, repro,
2013-04-06,-3.50, -1.22, -21.59, 2.23, 2.59, 10.86, repro,
2013-04-07,-1.60, -0.66, -11.65, 2.22, 2.50, 10.49, repro,
2013-04-08,-0.52, -2.92, -12.90, 2.33, 2.57, 11.18, repro,
2013-04-09,-2.68, -2.35, -11.58, 2.29, 2.56, 10.94, repro,
2013-04-10,-0.77, -3.14, 4.76, 2.34, 2.59, 11.00, repro,
2013-04-11,-3.45, -1.16, -16.21, 2.37, 2.56, 11.51, repro,
2013-04-12,-3.54, -2.07, -8.51, 2.54, 2.75, 12.97, repro,
2013-04-13,-3.63, -2.23, -16.19, 2.29, 2.54, 10.80, repro,
2013-04-14,-3.13, -2.09, -3.08, 2.29, 2.54, 10.86, repro,
2013-11-15,-2.84, -4.09, -26.07, 3.34, 3.33, 14.59, repro,
2013-11-16,-2.99, -1.33, -23.21, 1.62, 1.84, 7.47, repro,
2013-11-17,-1.49, -1.27, -13.14, 1.60, 1.83, 7.36, repro,
2013-11-18,-1.35, -3.26, -20.44, 1.62, 1.87, 7.52, repro,
2013-11-19,-4.51, 0.13, -16.97, 1.69, 1.88, 7.70, repro,
2013-11-20,-0.56, -2.21, -26.98, 1.61, 1.83, 7.39, repro,
2013-11-21,-4.18, -0.93, -22.68, 1.61, 1.83, 7.42, repro,
2013-11-22,-2.94, -1.66, -23.15, 1.60, 1.83, 7.38, repro,
2013-11-23,-2.11, -2.34, -27.39, 1.65, 1.87, 7.44, repro,
2013-11-24,-2.27, -3.11, -28.05, 1.60, 1.84, 7.35, repro,
2013-11-25,-1.91, -1.26, -20.53, 1.62, 1.88, 7.57, repro,
2013-11-26,-5.51, -1.20, -26.53, 1.68, 1.92, 7.96, repro,
2013-11-27,-3.49, -0.86, -22.68, 1.61, 1.83, 7.41, repro,
2013-11-28,-3.01, -2.87, -27.86, 1.62, 1.91, 7.50, repro,
2013-11-29,-1.80, -2.62, -26.46, 1.62, 1.91, 7.48, repro,
2013-11-30,-3.06, -1.92, -29.06, 1.60, 1.84, 7.42, repro,
2013-12-01,-3.90, -2.44, -26.11, 1.63, 1.92, 7.61, repro,
2013-12-02,-2.87, -2.77, -20.63, 1.74, 2.07, 7.89, repro,
2013-12-03,-3.40, -1.14, -20.93, 1.71, 2.07, 7.93, repro,
2013-12-04,-0.11, -1.73, -26.26, 1.81, 2.20, 8.51, repro,
2013-12-05,-3.37, -0.84, -18.11, 1.80, 2.21, 8.35, repro,
2013-12-06,-1.39, -2.78, -17.14, 1.63, 1.92, 7.57, repro,
2013-12-07,-4.25, -2.14, -24.86, 1.62, 1.90, 7.48, repro,
2013-12-08,-2.28, -2.18, -19.50, 1.64, 1.93, 7.57, repro,
2013-12-09,-1.22, -0.44, -17.92, 1.60, 1.83, 7.39, repro,
2013-12-10,-2.47, -2.87, -22.04, 1.60, 1.83, 7.38, repro,
2013-12-11,-3.14, -0.86, -23.50, 1.62, 1.82, 7.40, repro,
2013-12-12,-1.58, -0.85, -23.58, 1.64, 1.95, 7.64, repro,
2013-12-13,-3.11, -0.37, -20.07, 1.62, 1.90, 7.45, repro,
2013-12-14,-3.95, -2.24, -24.43, 1.63, 1.91, 7.52, repro,
2013-12-15,-2.26, -0.13, -18.86, 1.64, 1.94, 7.62, repro,
2013-12-16,-1.86, -1.23, -24.00, 1.63, 1.92, 7.54, repro,
2013-12-17,-2.32, 0.31, -25.56, 1.62, 1.83, 7.41, repro,
2013-12-18,-1.86, 1.80, -16.38, 1.60, 1.82, 7.32, repro,
2013-12-19,-0.69, -0.91, -16.70, 1.65, 1.90, 7.65, repro,
2013-12-20,-1.31, -1.18, -18.96, 1.64, 1.93, 7.59, repro,
2013-12-21,-0.62, -1.86, -19.56, 1.60, 1.85, 7.40, repro,
2013-12-22,-1.82, -1.33, -20.97, 1.64, 1.93, 7.59, repro,
2013-12-23,-2.64, -0.20, -25.24, 1.60, 1.83, 7.35, repro,
2013-12-24,-1.47, -1.10, -23.05, 1.62, 1.85, 7.48, repro,
2013-12-25,-1.65, -2.60, -17.92, 1.66, 1.97, 7.83, repro,
2013-12-26,-2.26, -1.02, -23.17, 1.63, 1.93, 7.59, repro,
2013-12-27,-3.10, -1.23, -17.92, 1.61, 1.87, 7.47, repro,
2013-12-28,-2.60, -0.30, -21.63, 1.64, 1.98, 7.74, repro,
2013-12-29,-2.52, -0.63, -21.61, 1.65, 1.96, 7.74, repro,
2013-12-30,-3.13, -2.41, -24.88, 1.63, 1.89, 7.63, repro,
2013-12-31,-1.38, -1.68, -20.36, 1.64, 1.89, 7.63, repro,
2014-01-01,-3.07, -0.66, -27.43, 1.61, 1.87, 7.47, repro,
2014-01-02,-3.66, -1.63, -30.04, 1.61, 1.87, 7.46, repro,
2014-01-03,-1.62, -1.41, -26.28, 1.62, 1.92, 7.57, repro,
2014-01-04,-0.43, -1.42, -18.65, 1.61, 1.84, 7.38, repro,
2014-01-05,-2.26, -0.36, -20.90, 1.62, 1.87, 7.53, repro,
2014-01-06,-1.82, -1.83, -29.65, 1.62, 1.87, 7.49, repro,
2014-01-07,-2.50, -1.43, -30.84, 1.63, 1.89, 7.58, repro,
2014-01-08,-0.99, -2.21, -27.33, 1.60, 1.84, 7.42, repro,
2014-01-09,0.18, -2.93, -23.04, 1.63, 1.84, 7.41, repro,
2014-01-10,-0.25, -1.90, -25.41, 1.69, 1.88, 7.66, repro,
2014-01-11,-1.56, -3.20, -24.03, 1.62, 1.83, 7.41, repro,
2014-01-12,0.89, -0.40, -22.41, 1.61, 1.84, 7.41, repro,
2014-01-13,-4.60, 1.00, -25.26, 1.64, 1.89, 7.65, repro,
2014-01-14,-3.54, -1.63, -23.84, 1.61, 1.85, 7.46, repro,
2014-01-15,-2.43, -0.93, -19.84, 1.62, 1.85, 7.46, repro,
2014-01-16,-2.63, -0.81, -15.72, 1.71, 1.90, 7.79, repro,
2014-01-17,-2.53, -0.33, -14.66, 1.66, 1.92, 7.71, repro,
2014-01-18,-2.63, -1.56, -28.40, 1.61, 1.82, 7.41, repro,
2014-01-19,-0.67, 0.63, -21.23, 1.65, 1.86, 7.67, repro,
2014-01-20,-0.11, 1.70, -12.64, 1.61, 1.83, 7.39, repro,
2014-01-21,-1.80, -0.45, -17.05, 1.60, 1.83, 7.39, repro,
2014-01-22,-2.17, -0.47, -17.91, 1.62, 1.83, 7.44, repro,
2014-01-23,-3.57, -0.78, -19.97, 1.60, 1.83, 7.38, repro,
2014-01-24,-1.91, -0.46, -20.49, 1.66, 1.88, 7.77, repro,
2014-01-25,-1.14, -0.16, -29.80, 1.68, 1.88, 7.80, repro,
2014-01-26,-3.45, -1.23, -21.56, 1.62, 1.90, 7.56, repro,
2014-01-27,-3.32, -0.93, -19.07, 1.64, 1.92, 7.71, repro,
2014-01-28,-2.70, -1.66, -19.21, 1.61, 1.85, 7.46, repro,
2014-01-29,-3.14, -0.12, -19.32, 1.63, 1.85, 7.56, repro,
2014-01-30,-0.17, -1.69, -24.17, 1.65, 1.86, 7.65, repro,
2014-01-31,-2.30, -2.56, -19.42, 1.71, 1.93, 7.93, repro,
2014-02-01,-0.29, 0.21, -10.88, 1.63, 1.91, 7.65, repro,
2014-02-02,0.16, 1.99, -11.48, 1.67, 1.88, 7.72, repro,
2014-02-03,-0.49, 0.97, -16.91, 1.76, 2.01, 8.34, repro,
2014-02-04,-3.70, 0.13, -23.87, 1.71, 1.90, 7.92, repro,
2014-02-05,-2.18, -0.15, -16.63, 1.63, 1.92, 7.59, repro,
2014-02-06,-3.88, -3.78, -28.15, 1.62, 1.87, 7.52, repro,
2014-02-07,-1.61, -2.22, -17.52, 1.67, 1.88, 7.70, repro,
2014-02-08,-3.43, -1.34, -21.01, 1.64, 1.86, 7.51, repro,
2014-02-09,-3.48, -1.98, -24.76, 1.71, 1.89, 7.92, repro,
2014-02-10,-2.68, -0.34, -20.44, 1.67, 1.86, 7.77, repro,
2014-02-11,-4.69, -1.41, -30.93, 1.66, 1.86, 7.65, repro,
2014-02-12,-0.81, -0.50, -17.99, 1.61, 1.83, 7.40, repro,
2014-02-13,-4.06, -1.00, -30.20, 1.67, 1.86, 7.71, repro,
2014-02-14,-4.04, -1.62, -17.43, 1.64, 1.89, 7.57, repro,
2014-02-15,-2.71, -0.76, -24.99, 1.64, 1.90, 7.59, repro,
2014-02-16,-3.21, -1.43, -20.76, 1.61, 1.83, 7.41, repro,
2014-02-17,-3.31, -1.24, -22.53, 1.72, 1.87, 7.96, repro,
2014-02-18,-5.04, -1.46, -23.53, 1.70, 1.91, 7.79, repro,
2014-02-19,-2.29, -2.34, -23.55, 1.77, 1.93, 8.05, repro,
2014-02-20,-3.96, -3.74, -20.78, 1.67, 1.85, 7.61, repro,
2014-02-21,-1.52, -2.81, -18.36, 1.61, 1.84, 7.39, repro,
2014-02-22,-3.01, 0.24, -24.50, 1.62, 1.86, 7.46, repro,
2014-02-23,-1.79, -1.99, -21.47, 1.86, 2.17, 8.59, repro,
2014-02-24,-4.19, -0.40, -31.63, 1.62, 1.87, 7.47, repro,
2014-02-25,-3.85, -0.34, -24.34, 1.69, 1.88, 7.83, repro,
2014-02-26,-0.55, -1.30, -20.59, 1.65, 1.88, 7.62, repro,
2014-02-27,-1.65, 2.02, -15.48, 1.65, 1.89, 7.67, repro,
2014-02-28,-2.44, -2.89, -19.21, 1.73, 1.97, 8.34, repro,
2014-03-01,-3.53, -1.42, -21.31, 1.68, 1.95, 7.90, repro,
2014-03-02,-2.97, 0.00, -19.69, 1.64, 1.89, 7.49, repro,
2014-03-03,-3.61, 0.02, -16.19, 1.74, 1.90, 8.01, repro,
2014-03-04,-1.44, -0.11, -25.38, 1.76, 1.95, 8.07, repro,
2014-03-05,-1.25, -1.34, -25.94, 1.76, 1.92, 8.20, repro,
2014-03-06,-3.34, -2.33, -27.79, 1.66, 1.89, 7.68, repro,
2014-03-07,-1.18, 0.78, -24.74, 1.85, 2.14, 8.44, repro,
2014-03-08,-2.55, -1.44, -24.48, 1.73, 1.99, 7.89, repro,
2014-03-09,-1.73, -0.04, -23.75, 1.64, 1.86, 7.50, repro,
2014-03-10,-1.24, 0.87, -16.80, 1.63, 1.87, 7.52, repro,
2014-03-11,-2.39, -0.32, -8.45, 1.64, 1.88, 7.57, repro,
2014-03-12,-3.23, -0.61, -18.65, 1.62, 1.88, 7.50, repro,
2014-03-13,-2.09, -1.27, -14.36, 1.61, 1.86, 7.40, repro,
2014-03-14,-1.78, -1.88, -17.01, 1.61, 1.87, 7.43, repro,
2014-03-15,-2.33, -0.64, -18.45, 1.62, 1.89, 7.52, repro,
2014-03-16,-3.07, -0.92, -20.09, 1.62, 1.87, 7.42, repro,
2014-03-17,-2.32, -2.64, -18.07, 1.65, 1.91, 7.64, repro,
2014-03-18,-2.75, -1.04, -12.96, 1.61, 1.87, 7.45, repro,
2014-03-19,-3.55, -1.68, -20.90, 1.60, 1.85, 7.36, repro,
2014-03-20,-1.26, -0.12, -21.90, 1.68, 1.96, 7.77, repro,
2014-03-21,-1.65, -0.86, -14.57, 1.64, 1.87, 7.53, repro,
2014-03-22,-3.14, -1.11, -23.24, 1.63, 1.87, 7.49, repro,
2014-03-23,-1.98, 0.67, -25.06, 1.63, 1.87, 7.51, repro,
2014-03-24,-2.43, 0.30, -15.65, 1.62, 1.86, 7.39, repro,
2014-03-25,-0.82, -1.46, -16.00, 1.66, 1.87, 7.63, repro,
2014-03-26,-1.65, -2.39, -17.03, 1.63, 1.88, 7.52, repro,
2014-03-27,-1.85, -2.43, -18.26, 1.62, 1.88, 7.52, repro,
2014-03-28,-1.89, 0.02, -16.36, 1.61, 1.88, 7.48, repro,
2014-03-29,-1.76, -0.31, -14.88, 1.66, 1.91, 7.72, repro,
2014-03-30,-2.43, 0.19, -23.16, 1.63, 1.93, 7.51, repro,
2014-03-31,-0.75, -0.79, -11.12, 1.67, 1.96, 7.73, repro,
2014-04-01,-0.80, -2.18, -11.79, 1.69, 1.97, 7.87, repro,
2014-04-02,-0.94, 0.26, -14.56, 1.64, 1.90, 7.55, repro,
2014-04-03,-1.60, 0.43, -12.61, 1.69, 1.96, 7.75, repro,
2014-04-04,-2.51, -0.07, -14.24, 1.68, 1.92, 7.84, repro,
2014-04-05,-2.11, -0.24, -25.92, 1.64, 1.90, 7.55, repro,
2014-04-06,-1.30, 0.71, -16.93, 1.72, 2.01, 7.83, repro,
2014-04-07,-2.70, 3.14, -19.53, 1.67, 1.95, 7.66, repro,
2014-04-08,-3.48, 0.45, -28.26, 1.67, 1.98, 7.77, repro,
2014-04-09,-1.15, -1.44, -15.11, 1.66, 1.96, 7.67, repro,
2014-04-10,-1.42, -3.58, -28.29, 1.67, 1.98, 7.76, repro,
2014-04-11,-3.99, 0.95, -18.42, 1.69, 2.00, 7.84, repro,
2014-04-12,-1.93, -0.13, -19.10, 1.69, 1.93, 7.78, repro,
2014-04-13,-3.70, -1.21, -15.14, 1.65, 1.92, 7.61, repro,
2014-04-14,-4.76, -1.21, -25.34, 1.63, 1.93, 7.56, repro,
2014-04-15,-4.02, -0.86, -15.74, 1.67, 1.97, 7.81, repro,
2014-04-16,-2.87, -0.19, -17.52, 1.74, 2.00, 8.24, repro,
2014-04-17,-3.27, -0.15, -21.16, 1.63, 1.88, 7.51, repro,
2014-04-18,-3.49, -1.75, -16.35, 1.61, 1.89, 7.48, repro,
2014-04-19,-2.13, 0.43, -9.94, 1.65, 1.93, 7.61, repro,
2014-04-20,-1.92, -0.29, -17.04, 1.63, 1.93, 7.53, repro,
2014-04-21,-1.41, -0.71, -9.67, 1.64, 1.98, 7.73, repro,
2014-04-22,-2.32, -0.13, -16.34, 1.65, 1.93, 7.67, repro,
2014-04-23,-1.84, -1.05, -12.80, 1.63, 1.93, 7.51, repro,
2014-04-24,-1.92, 0.52, -11.87, 1.67, 2.00, 7.75, repro,
2014-04-25,-1.87, 1.55, -15.22, 1.61, 1.89, 7.45, repro,
2014-04-26,-2.39, 0.48, -11.71, 1.62, 1.88, 7.50, repro,
2014-04-27,-2.51, 0.85, -15.98, 1.62, 1.89, 7.49, repro,
2014-04-28,-1.58, 2.03, -10.96, 1.62, 1.94, 7.61, repro,
2014-04-29,-3.39, -0.46, -14.69, 1.63, 1.94, 7.64, repro,
2014-04-30,-6.56, 1.92, -13.82, 1.65, 1.96, 7.75, repro,
2014-05-01,-4.67, 1.94, -15.77, 1.61, 1.87, 7.43, repro,
2014-05-02,-3.11, 0.80, -13.96, 1.63, 1.90, 7.57, repro,
2014-05-03,-1.14, 3.30, -8.01, 1.61, 1.88, 7.45, repro,
2014-05-04,-2.91, 1.14, -18.90, 1.67, 1.93, 7.71, repro,
2014-05-05,-3.64, 1.00, -17.34, 1.61, 1.87, 7.41, repro,
2014-05-06,-1.18, 0.68, -6.80, 1.62, 1.88, 7.46, repro,
2014-05-07,-1.49, 1.74, -14.50, 1.62, 1.89, 7.52, repro,
2014-05-08,-5.47, 3.54, -10.91, 1.79, 2.06, 8.20, repro,
2014-05-09,-4.35, 2.92, -16.92, 1.75, 2.04, 8.05, repro,
2014-05-10,-1.58, 0.45, -11.02, 1.73, 2.10, 7.89, repro,
2014-05-11,-4.14, 3.34, -15.48, 1.72, 2.09, 7.95, repro,
2014-05-12,-5.71, 4.12, -5.33, 1.64, 1.90, 7.61, repro,
2014-05-13,-5.99, 0.24, -6.84, 1.64, 1.89, 7.61, repro,
2014-05-14,-1.87, 3.00, -7.05, 1.60, 1.87, 7.42, repro,
2014-05-15,-2.43, 2.65, -13.32, 1.64, 1.88, 7.55, repro,
2014-05-16,-2.53, -0.41, -6.59, 1.61, 1.87, 7.42, repro,
2014-05-17,-1.67, 3.17, -17.60, 1.61, 1.87, 7.43, repro,
2014-05-18,-1.86, 2.25, -9.57, 1.61, 1.87, 7.47, repro,
2014-05-19,-1.65, 1.93, -19.70, 1.64, 1.96, 7.75, repro,
2014-05-20,-4.30, 2.20, -13.84, 1.68, 2.06, 7.90, repro,
2014-05-21,-6.05, 1.27, -11.38, 1.73, 1.94, 8.05, repro,
2014-05-22,-4.47, 0.75, -10.22, 1.66, 1.97, 7.85, repro,
2014-05-23,-4.25, 2.47, -21.07, 1.74, 2.01, 8.08, repro,
2014-05-24,-2.78, 4.38, -8.92, 1.73, 2.02, 8.01, repro,
2014-05-25,-2.51, 0.82, -8.53, 1.66, 1.98, 7.75, repro,
2014-05-26,-2.91, -0.55, -15.95, 1.75, 2.13, 8.35, repro,
2014-05-27,-2.67, 0.56, -9.40, 1.68, 2.06, 7.86, repro,
2014-05-28,-2.03, 0.38, -15.31, 1.64, 1.91, 7.66, repro,
2014-05-29,-3.97, -1.15, -17.64, 1.68, 2.06, 8.03, repro,
2014-05-30,-2.28, 3.87, -12.60, 1.66, 1.96, 7.83, repro,
2014-05-31,-4.30, 2.91, -13.56, 1.61, 1.89, 7.45, repro,
2014-06-01,-1.45, 0.87, -13.63, 1.70, 2.09, 8.07, repro,
2014-06-02,-4.14, 2.58, -8.26, 1.66, 2.06, 7.90, repro,
2014-06-03,-2.69, 2.88, -6.01, 1.66, 2.04, 7.87, repro,
2014-06-04,-4.50, 0.23, -20.50, 1.66, 2.03, 7.80, repro,
2014-06-05,-2.98, 0.92, -11.09, 1.72, 2.13, 7.86, repro,
2014-06-06,-3.84, 1.94, -14.21, 1.70, 2.06, 7.98, repro,
2014-06-07,-2.68, 1.32, -17.40, 1.66, 2.05, 7.80, repro,
2014-06-08,-2.23, 1.74, -11.02, 1.68, 2.11, 7.98, repro,
2014-06-09,-3.13, 2.33, -9.00, 1.77, 2.24, 8.40, repro,
2014-06-10,-1.71, 0.55, -11.25, 1.69, 1.98, 7.74, repro,
2014-06-11,-2.38, 2.69, -11.57, 1.62, 1.90, 7.51, repro,
2014-06-12,-2.00, 3.27, -9.64, 1.68, 2.01, 8.00, repro,
2014-06-13,-4.41, 3.25, -18.17, 1.67, 1.92, 7.89, repro,
2014-06-14,-2.01, 3.19, -12.66, 1.64, 1.90, 7.57, repro,
2014-06-15,-3.86, 4.84, -14.55, 1.66, 1.97, 7.65, repro,
2014-06-16,-1.27, -0.80, -16.63, 1.83, 2.16, 8.19, repro,
2014-06-17,-1.17, 6.72, -18.33, 1.71, 2.06, 8.13, repro,
2014-06-18,-2.21, 1.64, -13.69, 1.61, 1.89, 7.48, repro,
2014-06-19,-1.75, 4.22, -13.92, 1.61, 1.89, 7.47, repro,
2014-06-20,-3.38, 2.71, -20.65, 1.67, 2.07, 7.89, repro,
2014-06-21,-1.84, -0.71, -17.31, 1.69, 1.96, 7.77, repro,
2014-06-22,-0.73, 1.92, -16.27, 1.61, 1.88, 7.50, repro,
2014-06-23,-1.71, -0.90, -6.63, 1.64, 1.95, 7.73, repro,
2014-06-24,-1.91, 1.59, -24.41, 1.62, 1.90, 7.58, repro,
2014-06-25,2.05, 0.09, -15.78, 1.66, 1.96, 7.72, repro,
2014-06-26,-2.96, 0.22, -16.14, 1.61, 1.89, 7.54, repro,
2014-06-27,-1.68, 1.88, -20.06, 1.61, 1.89, 7.51, repro,
2014-06-28,-0.73, 1.02, -18.88, 1.63, 1.95, 7.72, repro,
2014-06-29,-2.36, 2.99, -19.45, 1.68, 2.21, 8.02, repro,
2014-06-30,-2.30, 1.73, -13.67, 1.56, 1.85, 7.25, repro,
2014-07-01,-2.02, 0.63, -16.22, 1.57, 1.87, 7.35, repro,
2014-07-02,-2.00, 1.90, -18.07, 1.57, 1.87, 7.30, repro,
2014-07-03,-1.84, 0.09, -24.08, 1.61, 1.97, 7.72, repro,
2014-07-04,-0.80, -0.68, -20.10, 1.68, 1.98, 7.80, repro,
2014-07-05,0.89, 0.42, -19.43, 1.74, 2.01, 7.94, repro,
2014-07-06,-0.19, 2.49, -12.60, 1.59, 1.94, 7.47, repro,
2014-07-07,-0.59, 2.33, -11.13, 1.56, 1.87, 7.29, repro,
2014-07-08,-1.75, 2.89, -22.34, 1.59, 1.89, 7.43, repro,
2014-07-09,-0.75, 1.92, -13.01, 1.56, 1.88, 7.29, repro,
2014-07-10,0.47, 1.54, -29.79, 1.58, 1.91, 7.38, repro,
2014-07-11,-0.82, 0.42, -25.61, 1.58, 1.90, 7.43, repro,
2014-07-12,-0.38, -0.61, -11.25, 1.57, 1.88, 7.31, repro,
2014-07-13,-0.47, -0.47, -14.33, 1.57, 1.89, 7.34, repro,
2014-07-14,-1.06, 0.49, -19.91, 1.57, 1.87, 7.28, repro,
2014-07-15,-0.42, 1.79, -9.37, 1.72, 2.17, 8.26, repro,
2014-07-16,-0.03, 0.35, -17.23, 1.56, 1.87, 7.23, repro,
2014-07-17,0.50, -0.31, -22.08, 1.59, 1.90, 7.53, repro,
2014-07-18,-2.08, -0.17, -10.93, 1.57, 1.89, 7.35, repro,
2014-07-19,-2.16, 0.69, -18.69, 1.57, 1.88, 7.35, repro,
2014-07-20,-0.46, 0.86, -22.07, 1.57, 1.88, 7.29, repro,
2014-07-21,0.34, -1.25, -21.72, 1.57, 1.87, 7.31, repro,
2014-07-22,-1.11, -0.46, -19.93, 1.57, 1.88, 7.31, repro,
2014-07-23,-1.84, -1.05, -25.34, 1.58, 1.89, 7.40, repro,
2014-07-24,-3.50, -1.09, -22.44, 1.57, 1.87, 7.34, repro,
2014-07-25,-2.28, -0.14, -27.60, 1.59, 1.88, 7.42, repro,
2014-07-26,-1.84, -2.08, -25.20, 1.57, 1.87, 7.36, repro,
2014-07-27,-0.81, 0.36, -18.92, 1.59, 1.94, 7.48, repro,
2014-07-28,-2.20, 0.83, -19.59, 1.57, 1.87, 7.35, repro,
2014-07-29,-2.97, 0.47, -17.10, 1.59, 1.93, 7.50, repro,
2014-07-30,-4.11, -1.27, -24.26, 1.58, 1.87, 7.39, repro,
2014-07-31,-2.36, 0.02, -28.02, 1.63, 1.89, 7.53, repro,
2014-08-01,-2.74, 0.28, -27.94, 1.60, 1.87, 7.48, repro,
2014-08-02,-1.48, -0.23, -25.98, 1.62, 1.95, 7.78, repro,
2014-08-03,-3.41, -0.11, -20.83, 1.74, 2.02, 8.19, repro,
2014-08-04,-3.72, 0.97, -25.05, 1.66, 2.01, 7.77, repro,
2014-08-05,-2.44, -0.74, -26.64, 1.83, 2.16, 8.40, repro,
2014-08-06,-4.19, -1.68, -26.48, 1.59, 1.86, 7.47, repro,
2014-08-07,-2.64, 0.84, -22.93, 1.61, 1.89, 7.59, repro,
2014-08-08,-4.94, -0.70, -15.90, 1.65, 1.99, 7.75, repro,
2014-08-09,-3.66, -1.05, -21.07, 1.61, 1.90, 7.61, repro,
2014-08-10,0.27, 0.90, -23.12, 1.68, 1.91, 7.87, repro,
2014-08-11,-3.49, -0.98, -26.62, 1.59, 1.87, 7.52, repro,
2014-08-12,-2.72, -2.18, -21.73, 1.69, 1.96, 7.94, repro,
2014-08-13,-3.68, 0.46, -15.27, 1.79, 2.30, 8.78, repro,
2014-09-16,-1.80, -1.96, -17.35, 1.62, 1.87, 7.70, repro,
2014-09-17,-4.97, 2.18, -19.89, 1.66, 1.89, 7.88, repro,
2014-09-18,-1.96, -0.98, -15.72, 1.60, 1.83, 7.50, repro,
2014-09-19,-1.09, -2.90, -31.10, 1.71, 1.93, 8.08, repro,
2014-09-20,-3.62, -4.08, -32.05, 1.75, 2.18, 8.50, repro,
2014-09-21,-3.52, -1.81, -34.97, 1.61, 1.83, 7.51, repro,
2014-09-22,-2.39, -1.74, -24.04, 1.59, 1.83, 7.46, repro,
2014-09-23,-1.37, -0.75, -20.36, 1.59, 1.82, 7.47, repro,
2014-09-24,-3.23, -0.53, -22.04, 1.76, 2.01, 8.02, repro,
2014-09-25,-3.90, -0.33, -22.68, 1.59, 1.82, 7.41, repro,
2014-09-26,-2.39, -0.69, -21.84, 1.82, 2.14, 8.76, repro,
2014-09-27,-1.67, 1.90, -9.28, 1.80, 2.03, 8.17, repro,
2014-09-28,-3.54, -1.16, -31.40, 1.69, 1.91, 7.88, repro,
2014-09-29,-1.34, -0.80, -21.39, 1.65, 1.85, 7.62, repro,
2014-09-30,-3.02, 0.73, -14.98, 1.59, 1.81, 7.40, repro,
2014-10-01,-3.51, -1.43, -16.61, 1.63, 1.83, 7.51, repro,
2014-10-02,-3.07, -1.28, -22.50, 1.66, 1.88, 7.78, repro,
2014-10-03,-2.74, -1.59, -26.16, 1.62, 1.81, 7.43, repro,
2014-10-04,-1.79, -0.27, -25.92, 1.65, 1.82, 7.51, repro,
2014-10-05,-4.01, -2.28, -33.07, 1.59, 1.81, 7.43, repro,
2014-10-06,-3.77, 0.89, -29.88, 1.59, 1.79, 7.36, repro,
2014-10-07,-5.55, -0.88, -20.80, 1.61, 1.80, 7.37, repro,
2014-10-08,-5.03, -0.48, -27.70, 1.59, 1.80, 7.38, repro,
2014-10-09,-3.30, 1.13, -24.84, 1.59, 1.80, 7.38, repro,
2014-10-10,-2.26, 0.27, -25.10, 1.61, 1.81, 7.46, repro,
2014-10-11,-2.45, -2.28, -25.90, 1.93, 2.14, 8.81, repro,
2014-10-12,-4.56, -1.12, -17.43, 1.61, 1.79, 7.49, repro,
2014-10-13,-5.48, -0.04, -16.25, 1.63, 1.86, 7.64, repro,
2014-10-14,-5.10, -2.76, -14.29, 1.61, 1.79, 7.54, repro,
2014-10-15,-3.10, -2.76, -27.43, 1.60, 1.79, 7.40, repro,
2014-10-16,-4.90, -0.57, -22.41, 1.60, 1.79, 7.37, repro,
2014-10-17,-5.37, -2.79, -24.82, 1.70, 1.90, 7.83, repro,
2014-10-18,-4.02, -2.59, -27.97, 1.65, 1.82, 7.63, repro,
2014-10-19,-4.17, -0.51, -25.86, 1.64, 1.85, 7.75, repro,
2014-10-20,-5.53, -1.07, -29.56, 1.63, 1.87, 7.64, repro,
2014-10-21,-5.43, -2.25, -21.72, 1.67, 1.91, 7.98, repro,
2014-10-22,-5.14, -1.41, -24.75, 1.68, 1.89, 7.88, repro,
2014-10-23,-3.81, -1.19, -20.29, 1.59, 1.76, 7.26, repro,
2014-10-24,-4.22, -2.13, -23.02, 1.61, 1.76, 7.43, repro,
2014-10-25,-4.46, -2.06, -24.76, 1.59, 1.78, 7.35, repro,
2014-10-26,-3.71, -0.72, -23.92, 1.65, 1.80, 7.67, repro,
2014-10-27,-2.43, -4.01, -17.00, 1.62, 1.82, 7.46, repro,
2014-10-28,-3.97, -0.90, -22.44, 1.65, 1.90, 7.64, repro,
2014-10-29,-5.15, -0.84, -23.08, 1.88, 2.04, 8.72, repro,
2014-10-30,-5.06, -1.16, -25.23, 1.61, 1.84, 7.49, repro,
2014-10-31,-5.41, -1.28, -24.45, 1.62, 1.80, 7.46, repro,
2014-11-01,-3.08, -2.34, -23.39, 1.62, 1.81, 7.52, repro,
2014-11-02,-5.39, 0.18, -20.29, 1.62, 1.81, 7.51, repro,
2014-11-03,-3.97, -0.83, -22.13, 1.62, 1.80, 7.45, repro,
2014-11-04,-4.16, -1.91, -27.99, 1.61, 1.79, 7.42, repro,
2014-11-05,-5.36, -2.46, -20.61, 1.71, 1.81, 7.77, repro,
2014-11-06,-5.28, -1.39, -21.05, 1.63, 1.80, 7.57, repro,
2014-11-07,-3.95, -0.91, -17.16, 1.63, 1.80, 7.52, repro,
2014-11-08,-1.59, -1.13, -23.17, 1.62, 1.79, 7.50, repro,
2014-11-09,-4.75, -1.74, -19.11, 1.71, 1.97, 8.15, repro,
2014-11-10,-3.84, -3.08, -21.11, 1.61, 1.78, 7.46, repro,
2014-11-11,-5.91, -2.00, -17.91, 1.62, 1.79, 7.54, repro,
2014-11-12,-3.24, 7.05, 7.68, 1.67, 1.92, 7.93, repro,
2014-11-13,-3.91, -0.37, -18.14, 1.69, 1.82, 7.79, repro,
2014-11-14,-4.73, -1.28, -25.17, 1.63, 1.77, 7.51, repro,
2014-11-15,-5.37, -0.79, -14.83, 1.62, 1.76, 7.43, repro,
2014-11-16,-4.64, -0.36, -17.28, 1.62, 1.76, 7.47, repro,
2014-11-17,-5.08, -1.14, -20.35, 1.65, 1.85, 7.68, repro,
2014-11-18,-4.18, 0.35, -22.53, 1.63, 1.77, 7.52, repro,
2014-11-19,-4.95, -0.22, -18.98, 1.62, 1.75, 7.49, repro,
2014-11-20,-3.00, 0.86, -17.79, 1.65, 1.79, 7.67, repro,
2014-11-21,-3.83, -1.59, -8.72, 1.69, 1.96, 8.00, repro,
2014-11-22,-5.29, -1.92, -23.15, 1.72, 1.99, 8.14, repro,
2014-11-23,-5.04, -1.05, -12.64, 1.66, 1.80, 7.73, repro,
2014-11-24,-4.93, 0.17, -8.39, 1.66, 1.79, 7.69, repro,
2014-11-25,-4.66, 0.16, -13.74, 1.67, 1.88, 7.83, repro,
2014-11-26,-6.04, -2.23, -14.85, 1.65, 1.78, 7.64, repro,
2014-11-27,-5.16, -0.63, -22.07, 1.63, 1.76, 7.52, repro,
2014-11-28,-4.98, -0.86, -16.45, 1.65, 1.86, 7.67, repro,
2014-11-29,-5.38, 0.72, -23.16, 1.64, 1.79, 7.55, repro,
2014-11-30,-2.70, 0.05, -24.48, 1.69, 1.91, 7.87, repro,
2014-12-01,-5.18, -1.48, -23.49, 1.64, 1.87, 7.70, repro,
2014-12-02,-4.22, -0.49, -20.47, 1.64, 1.85, 7.61, repro,
2014-12-03,-4.80, -1.29, -20.45, 1.64, 1.86, 7.62, repro,
2014-12-04,-5.15, -1.47, -17.30, 1.64, 1.85, 7.62, repro,
2014-12-05,-4.21, -0.13, -16.51, 1.62, 1.76, 7.47, repro,
2014-12-06,-4.14, -0.39, -24.38, 1.63, 1.76, 7.52, repro,
2014-12-07,-3.86, -2.89, -20.93, 1.64, 1.78, 7.59, repro,
2014-12-08,-4.91, -0.83, -19.33, 1.64, 1.85, 7.63, repro,